Dewpoint
48 48 47 46 46 46 46 46 46 45 45 46 48 48 49 49 48 46 43 41 44 48 49 46 44 43 42 44 44 45 37 35 37 37 37 40 37 38 48 51 53 54 54 56 63
48 47 47 47 47 46 46 45 44 46 47 47 48 47 48 48 45 42 44 46 46 49 45 44 41 43 37 39 41 40 33 34 38 39 39 39 37 40 48 52 53 54 57 61 63
49 48 48 47 47 47 47 46 46 46 47 47 48 47 46 46 40 38 46 47 45 47 46 46 46 42 35 38 37 36 33 34 39 40 41 44 38 49 47 50 52 53 59 61 61
49 48 48 48 48 47 48 48 47 47 47 48 48 47 47 43 22 41 47 44 45 45 44 43 40 37 35 32 37 31 29 32 35 41 41 45 45 43 47 44 53 56 59 60 60
49 49 48 48 48 48 48 48 48 48 48 48 48 47 44 39 37 43 43 44 45 44 41 41 36 32 31 32 34 33 29 28 33 39 40 45 44 45 49 51 55 57 59 59 59
49 48 48 48 48 48 48 47 47 47 48 49 48 47 41 34 39 44 42 43 43 43 41 42 38 37 36 33 31 29 33 33 31 33 37 43 42 45 44 53 56 57 58 59 59
48 49 47 47 47 47 47 46 47 47 47 47 48 44 41 36 39 40 38 41 42 43 41 41 41 39 38 34 35 33 31 32 34 33 37 45 40 43 48 55 56 56 57 58 59
48 45 47 46 47 47 46 46 47 46 45 47 46 42 35 39 39 38 38 39 42 44 43 42 43 40 37 38 34 32 31 27 28 30 38 42 35 42 52 53 55 56 56 57 58
49 45 46 46 46 46 46 46 47 45 43 42 40 36 32 37 34 37 40 38 41 44 44 44 43 38 38 34 28 32 24 26 27 30 39 41 35 42 52 53 53 54 55 56 57
49 46 45 45 45 45 47 48 48 42 37 34 33 31 31 31 35 39 42 40 42 40 41 39 39 33 32 28 16 20 25 27 28 38 40 39 37 41 46 50 52 54 55 56 57
49 47 44 45 43 46 43 35 27 28 33 30 28 30 34 36 39 40 41 42 39 39 31 36 31 26 24 30 29 32 29 25 30 37 37 36 35 39 44 49 52 53 55 55 55
48 47 45 44 43 44 38 33 31 30 28 33 34 34 36 37 35 38 40 36 35 30 33 31 27 28 29 29 29 29 31 28 32 39 36 35 34 40 46 46 49 52 54 55 55
47 44 44 43 42 39 36 36 41 39 31 32 35 35 35 37 35 35 39 35 32 29 30 27 26 34 33 32 31 30 30 29 30 38 38 35 33 41 48 49 49 52 54 55 56
49 44 45 44 36 36 34 39 41 38 27 27 30 35 36 37 35 39 42 37 33 30 31 30 36 35 35 33 33 30 34 31 32 35 30 36 30 38 45 48 49 50 53 54 56
49 45 41 42 36 34 37 40 39 31 19 27 31 38 37 34 36 38 43 38 32 32 35 27 32 34 33 34 36 33 37 35 36 34 33 33 32 34 44 44 47 50 52 54 55
47 45 38 36 37 37 39 38 35 26 18 26 31 28 29 33 35 38 40 41 39 36 34 30 36 37 37 38 39 40 37 36 36 35 29 33 33 30 38 41 43 49 51 53 54
45 46 32 33 28 38 38 35 26 22 26 28 28 28 28 28 32 33 32 29 25 20 20 28 33 37 39 35 37 37 32 27 26 26 26 34 32 30 33 41 44 44 47 51 53
44 44 35 29 37 38 36 30 18 24 26 27 26 28 28 28 29 30 29 23 29 27 24 22 15 34 37 34 34 35 32 24 17 21 27 34 28 26 33 40 42 44 46 49 52
42 37 32 31 38 36 33 21 20 24 27 25 28 27 28 29 26 28 28 25 25 29 24 26 26 35 35 33 34 32 30 30 25 25 27 29 31 30 32 35 44 44 46 49 51
34 32 29 35 37 35 27 24 24 24 22 23 27 27 26 26 25 25 25 27 26 30 30 29 25 32 31 31 31 33 30 26 25 20 21 24 25 24 29 30 38 45 46 47 49
33 29 30 36 35 30 19 23 23 21 22 24 26 26 25 27 25 24 24 28 29 29 31 29 27 24 27 29 29 29 29 26 23 24 21 17 19 26 26 29 36 42 46 48 50
30 23 33 35 24 19 19 21 22 19 21 21 22 27 27 28 26 25 25 27 29 30 28 31 27 24 26 26 30 30 29 27 24 19 21 21 20 20 20 22 28 39 41 46 50
26 27 33 32 15 14 19 16 19 19 19 19 20 26 27 26 23 24 27 29 30 31 28 30 27 21 21 24 25 27 26 27 24 23 22 20 18 19 20 23 27 36 39 44 47
27 21 26 27 25 23 16 13 13 20 19 20 19 20 22 24 25 24 23 28 26 29 32 32 29 25 19 21 25 23 24 24 25 22 22 21 20 20 20 20 22 30 36 40 44
30 22 21 17 18 17 22 19 19 19 19 20 18 18 20 20 23 24 25 25 28 27 31 31 26 27 27 27 28 28 26 23 24 27 23 23 22 24 24 23 21 28 37 40 42
32 28 25 24 19 21 18 15 18 20 19 17 18 20 22 21 26 25 25 25 25 26 28 28 26 28 26 27 28 27 28 27 24 24 25 24 22 24 24 22 23 27 32 33 36
30 31 32 28 22 23 20 19 20 19 20 18 19 23 22 24 27 28 27 27 27 24 25 27 27 26 21 26 25 22 27 27 26 24 23 21 24 23 23 22 23 24 25 29 31
Lifted_Index
13 13 13 13 14 14 14 15 15 15 15 15 15 15 15 15 16 16 15 13 10 6 4 3 2 2 2 1 0 0 -0 0 1 2 3 4 4 4 2 1 1 1 0 -1 -2
13 13 13 13 14 14 14 15 15 15 15 15 15 15 15 15 16 15 14 11 8 5 4 3 2 2 2 1 1 0 0 1 1 2 2 3 3 3 1 1 1 1 -0 -1 -2
13 13 13 13 13 14 14 15 15 15 15 14 14 14 15 15 15 14 11 8 5 4 4 3 2 2 2 1 1 1 1 1 2 2 1 1 2 1 0 0 1 0 -1 -2 -2
13 13 13 13 13 14 14 14 14 14 14 14 13 14 14 14 13 12 10 7 5 4 4 3 3 3 2 2 1 2 2 2 3 2 1 1 1 0 0 -0 -0 -1 -2 -3 -3
13 13 13 13 13 14 14 14 14 14 13 13 13 13 14 13 13 11 9 6 5 4 4 4 3 3 3 2 1 2 2 3 3 3 2 1 1 0 -0 -1 -2 -3 -3 -3 -3
13 13 13 13 13 13 13 13 13 13 12 12 12 12 13 13 12 11 8 6 5 4 4 3 3 3 2 2 1 2 2 3 3 3 3 2 1 1 -1 -3 -4 -4 -3 -3 -3
13 13 14 14 13 13 13 13 13 12 12 11 11 11 12 12 12 10 8 6 4 4 3 3 2 2 2 1 1 1 2 3 4 4 3 3 2 1 -1 -4 -5 -4 -3 -3 -3
13 14 14 14 14 14 14 13 13 12 12 11 11 11 11 11 11 10 8 5 4 3 2 2 2 1 1 1 0 1 2 3 3 3 2 2 2 1 -2 -4 -5 -4 -3 -3 -3
13 14 14 14 14 14 14 13 13 12 12 11 11 10 10 10 10 9 8 5 3 2 2 1 1 1 1 1 1 1 2 2 2 2 1 2 2 0 -2 -4 -5 -4 -4 -4 -4
13 14 14 14 14 14 14 13 12 12 12 11 10 9 8 8 9 9 7 5 3 2 2 1 1 1 1 1 1 1 1 1 1 1 1 2 2 0 -2 -4 -4 -4 -4 -4 -4
13 14 15 15 15 14 14 13 12 11 10 9 8 7 7 8 8 8 7 6 4 3 2 2 2 2 2 2 2 2 1 1 0 1 1 2 2 0 -1 -3 -4 -4 -4 -4 -4
14 14 15 15 15 14 14 14 13 11 9 8 7 7 6 7 7 7 7 6 5 5 4 3 3 3 3 3 3 2 1 1 0 1 2 2 2 1 -1 -2 -2 -3 -4 -4 -4
14 14 15 15 15 15 14 14 14 12 8 7 6 6 6 6 7 7 6 6 6 5 4 4 4 4 4 4 3 2 1 1 1 1 2 2 2 1 -1 -1 -1 -2 -3 -4 -4
14 14 15 15 15 15 15 15 15 12 7 5 6 5 5 6 6 6 6 6 6 5 4 3 3 3 3 3 2 2 2 1 1 1 2 2 1 0 -1 -1 -1 -1 -2 -3 -4
13 14 15 15 16 15 15 15 14 10 6 5 5 5 5 5 5 6 6 6 5 5 4 3 2 2 2 2 2 2 2 1 1 1 1 1 1 0 -1 -1 -1 -1 -2 -2 -3
14 14 15 16 16 15 15 14 11 8 5 5 5 5 4 3 4 5 5 5 5 5 4 4 3 2 2 1 1 1 1 1 0 0 1 1 1 1 0 -0 -1 -1 -1 -2 -2
14 14 15 16 16 15 14 12 8 6 5 5 4 4 3 3 3 3 4 4 5 5 4 4 3 3 2 2 2 1 1 1 0 0 1 1 1 1 1 1 1 0 0 -0 -1
13 14 15 16 16 15 13 9 6 6 6 6 4 4 4 3 3 3 3 4 4 4 4 4 3 3 3 3 3 2 1 1 1 0 1 1 1 1 1 1 1 1 1 1 1
13 13 14 16 16 15 11 7 6 7 7 6 5 4 4 4 3 3 3 3 3 4 4 3 3 4 3 4 3 3 2 2 1 1 1 1 1 1 2 1 1 1 1 1 1
11 12 14 16 16 13 10 7 7 8 9 8 5 4 4 4 4 3 3 3 3 3 3 3 3 3 3 4 4 3 3 2 2 1 1 1 1 1 2 1 1 1 1 0 0
10 10 13 15 14 11 8 7 8 10 10 9 7 5 5 4 4 4 3 3 3 3 3 3 3 3 3 3 4 4 3 3 2 2 1 1 1 2 2 2 1 1 0 -0 -1
9 10 13 14 11 8 8 9 10 10 11 10 8 7 6 6 5 4 4 4 4 4 4 3 3 3 3 3 4 4 4 4 3 3 2 2 2 3 3 3 2 2 1 -0 -1
9 10 12 12 9 8 8 9 10 10 10 10 9 8 7 7 7 6 5 5 5 5 4 4 4 3 3 3 3 4 4 4 3 3 3 3 3 4 4 4 3 2 2 1 -0
8 9 10 11 9 8 8 8 9 9 10 10 10 9 9 8 7 7 7 7 6 6 6 5 4 4 3 3 3 3 3 3 4 4 3 3 4 4 4 4 4 3 3 2 1
8 9 9 9 9 9 8 8 7 8 9 9 9 10 9 9 8 8 7 7 7 7 7 6 5 4 4 4 4 4 3 4 4 4 4 4 4 4 4 4 4 4 4 3 2
8 9 9 9 9 9 9 8 8 8 8 9 9 10 10 9 9 9 8 8 8 8 7 6 5 4 4 4 4 4 4 4 4 4 4 4 4 5 5 5 4 4 4 4 3
8 9 9 9 9 9 9 9 8 8 9 9 10 10 10 10 10 10 9 8 8 7 7 6 5 4 4 4 4 4 4 4 4 5 5 5 5 5 5 5 4 4 4 4 3